Regional Weather Roundup
Issued by NWS Kansas City/Pleasant Hill, MO

Home | Current Version | Previous Version | Text Only | Print | Product List | Glossary On
Versions: 1 2 3 4 5 6 7 8 9 10 11 12 13 14 15 16 17 18 19 20 21 22 23 24 25 26 27
000
ASUS43 KEAX 032210
RWREAX

WEATHER ROUNDUP FOR EASTERN KANSAS AND NORTHWEST MISSOURI
NATIONAL WEATHER SERVICE KANSAS CITY/PLEASANT HILL MO
500 PM CDT TUE MAY 03 2016

KSZ040-057-103>105-MOZ028-029-037-043-032300-
...KANSAS CITY METROPOLITAN AREA...

CITY           SKY/WX    TMP DP  RH WIND       PRES   REMARKS
K.C. INTL      MOSUNNY   69  40  34 NW7       29.97F
K.C. DOWNTOWN  MOSUNNY   69  39  33 W6        29.96F
LEES SUMMIT    SUNNY     69  40  34 W12G20    29.98F
OLATHE - IXD   MOSUNNY   69  42  37 SW7       29.99F
OLATHE - OJC   MOSUNNY   67  40  37 W10       29.99F
LAWRENCE       MOSUNNY   68  43  40 NW9       29.98F

$$

MOZ001>008-011>017-020>025-030>033-038>040-044>046-053-054-032300-
...NORTHERN AND CENTRAL MISSOURI...

CITY           SKY/WX    TMP DP  RH WIND       PRES   REMARKS
ST. JOSEPH     MOSUNNY   70  41  34 W12       29.96F
MOSBY          PTCLDY    68  36  30 CALM      29.97F
WARRENSBURG    MOSUNNY   68  37  32 SW7       29.98F
WHITEMAN AFB   MOSUNNY   69  40  34 VRB7      29.97F
CLINTON        MOSUNNY   66  41  39 NW6       30.00F
SEDALIA        PTSUNNY   68  43  40 W8        29.99F
WARSAW         NOT AVBL
CHILLICOTHE      N/A     69  43  38 VRB7G16   29.96F
KIRKSVILLE     PTSUNNY   68  40  35 W10       29.93F

$$

MOZ041-047>049-056>058-063>065-088>090-097-032300-
...EASTERN AND SOUTHERN MISSOURI...

CITY           SKY/WX    TMP DP  RH WIND       PRES   REMARKS
ST. LOUIS INTL CLOUDY    64  42  44 VRB5      29.96F
SPIRIT OF STL  CLOUDY    62  46  55 W7        29.96F
COLUMBIA       PTSUNNY   67  40  37 N9        29.96F
JEFFERSON CITY MOSUNNY   68  36  30 VRB7G18   29.96F
ROLLA          PTSUNNY   62  43  49 NW10      29.97F
OSAGE BEACH    MOSUNNY   66  37  34 NW5       29.99F
SPRINGFIELD    MOSUNNY   63  39  41 NW10      30.01F
BRANSON        PTSUNNY   66  39  37 NW8G17    30.02F
JOPLIN         MOSUNNY   67  44  43 N7        30.03F
WEST PLAINS    MOSUNNY   64  36  35 N7        30.00S

$$

IAZ060-094-KSZ022-034>040-054-083-096-NEZ052-066-093-032300-
...KANSAS...SOUTHEAST NEBRASKA AND IOWA...

CITY           SKY/WX    TMP DP  RH WIND       PRES   REMARKS
TOPEKA         MOSUNNY   71  42  35 W9        29.97F
MANHATTAN      PTSUNNY   73  39  29 W6        29.97F
EMPORIA        PTSUNNY   71  41  33 VRB7      29.98F
CHANUTE        PTSUNNY   68  44  42 CALM      30.01F
WICHITA        PTSUNNY   72  42  34 SW12G18   30.00F
OMAHA          PTSUNNY   71  41  33 W20       29.93F
LINCOLN        MOSUNNY   71  39  31 NW14G21   29.97F
FALLS CITY     MOSUNNY   70  42  36 W10       29.96F
LAMONI         MOSUNNY   66  43  43 W15       29.93F
DES MOINES     CLOUDY    68  39  34 W13       29.89F

$$





USA.gov is the U.S. government's official web portal to all federal, state and local government web resources and services.